This is the latest recevied weather packets stored in our database for station/object KD0SBN-3. If no packets are shown the sender has not sent any weather packets the latest 10 day(s).
| Time | Temp. | Humidity | Pressure | Rain* | Wind** | Luminosity | Snow |
|---|---|---|---|---|---|---|---|
| 1777646550 | -1.67° C | 97% | 1026.4 hPa | 0 mm | - | 23 W/m² | - |
| 1777646241 | -1.67° C | 97% | 1026.6 hPa | 0 mm | - | 21 W/m² | - |
| 1777645939 | -1.67° C | 97% | 1026.6 hPa | 0 mm | - | 20 W/m² | - |
| 1777645635 | -1.11° C | 97% | 1026.6 hPa | 0 mm | - | 24 W/m² | - |
| 1777645331 | -1.11° C | 97% | 1026.6 hPa | 0 mm | - | 33 W/m² | - |
| 1777645027 | -1.11° C | 97% | 1026.3 hPa | 0 mm | - | 33 W/m² | - |
| 1777644724 | -1.67° C | 97% | 1026.3 hPa | 0 mm | - | 25 W/m² | - |
| 1777644421 | -1.67° C | 97% | 1026.2 hPa | 0 mm | - | 31 W/m² | - |
| 1777644117 | -1.67° C | 97% | 1026.3 hPa | 0 mm | - | 31 W/m² | - |
| 1777643814 | -2.22° C | 97% | 1026.6 hPa | 0 mm | - | 21 W/m² | - |
| 1777643511 | -2.22° C | 97% | 1026.3 hPa | 0 mm | - | 14 W/m² | - |
| 1777643208 | -2.22° C | 97% | 1026.2 hPa | 0 mm | - | 9 W/m² | - |
| 1777642904 | -2.22° C | 97% | 1026 hPa | 0 mm | - | 10 W/m² | - |
| 1777642601 | -2.22° C | 97% | 1026.4 hPa | 0 mm | - | 9 W/m² | - |
| 1777642298 | -2.22° C | 97% | 1026.2 hPa | 0 mm | - | 10 W/m² | - |
| 1777641995 | -2.22° C | 97% | 1026 hPa | 0 mm | - | 10 W/m² | - |
| 1777641691 | -2.22° C | 97% | 1025.9 hPa | 0 mm | - | 11 W/m² | - |
| 1777641386 | -2.22° C | 97% | 1026 hPa | 0 mm | - | 6 W/m² | - |
| 1777641081 | -2.22° C | 97% | 1026.2 hPa | 0 mm | - | 6 W/m² | - |
| 1777640777 | -2.22° C | 97% | 1025.9 hPa | 0 mm | - | 8 W/m² | - |
| 1777640475 | -2.22° C | 97% | 1025.9 hPa | 0 mm | - | 8 W/m² | - |
| 1777640171 | -2.22° C | 97% | 1025.9 hPa | 0 mm | - | 6 W/m² | - |
| 1777639868 | -2.22° C | 97% | 1025.9 hPa | 0 mm | - | 5 W/m² | - |
| 1777639566 | -2.22° C | 97% | 1026 hPa | 0 mm | - | 4 W/m² | - |
| 1777639263 | -2.22° C | 97% | 1025.8 hPa | 0 mm | - | 3 W/m² | - |
* Rain latest hour (hover to see other rain measurements)
** Current wind speed in m/s (hover to see current wind gust speed)